Precipitable_Water
0.33 0.26 0.22 0.22 0.24 0.25 0.28 0.28 0.27 0.26 0.25 0.24 0.22 0.20 0.18 0.18 0.18 0.21 0.22 0.26 0.27 0.23 0.21 0.21 0.21 0.20 0.21 0.23 0.24 0.25 0.26 0.24 0.24 0.24 0.26 0.28 0.28 0.27 0.26 0.26 0.26 0.27 0.28 0.34 0.39 0.43 0.46 0.45 0.46 0.50 0.52 0.57 0.60 0.59 0.57 0.55 0.57 0.59 0.59 0.58 0.58 0.58 0.54 0.53 0.51 0.47 0.42 0.36 0.34 0.34 0.35 0.33 0.36 0.41 0.44 0.49 0.54 0.57 0.59 0.59 0.60 0.61 0.61 0.64 0.68 0.76
0.31 0.26 0.25 0.28 0.31 0.28 0.28 0.27 0.26 0.25 0.24 0.23 0.22 0.19 0.18 0.18 0.15 0.22 0.24 0.23 0.25 0.19 0.20 0.24 0.22 0.21 0.22 0.24 0.25 0.27 0.30 0.25 0.24 0.24 0.26 0.27 0.27 0.26 0.25 0.25 0.25 0.27 0.33 0.37 0.40 0.44 0.44 0.43 0.46 0.50 0.52 0.55 0.54 0.57 0.56 0.54 0.56 0.59 0.59 0.56 0.61 0.57 0.55 0.53 0.49 0.50 0.49 0.41 0.36 0.34 0.34 0.34 0.36 0.35 0.39 0.42 0.50 0.53 0.58 0.61 0.60 0.61 0.62 0.62 0.64 0.70
0.25 0.24 0.32 0.32 0.31 0.30 0.29 0.29 0.28 0.27 0.24 0.23 0.20 0.21 0.17 0.17 0.18 0.22 0.21 0.21 0.25 0.20 0.17 0.25 0.21 0.20 0.22 0.25 0.27 0.27 0.27 0.28 0.26 0.26 0.28 0.29 0.27 0.28 0.26 0.24 0.25 0.28 0.33 0.38 0.38 0.39 0.39 0.41 0.43 0.47 0.50 0.53 0.54 0.59 0.59 0.58 0.58 0.58 0.57 0.58 0.59 0.57 0.54 0.54 0.51 0.52 0.46 0.45 0.43 0.39 0.38 0.37 0.35 0.43 0.42 0.43 0.49 0.54 0.55 0.58 0.61 0.60 0.61 0.61 0.62 0.66
0.21 0.25 0.31 0.32 0.32 0.29 0.28 0.28 0.28 0.26 0.25 0.23 0.22 0.18 0.16 0.20 0.15 0.18 0.24 0.24 0.21 0.19 0.19 0.24 0.20 0.18 0.20 0.22 0.23 0.26 0.25 0.25 0.28 0.29 0.27 0.25 0.23 0.24 0.26 0.27 0.28 0.31 0.35 0.35 0.36 0.37 0.39 0.40 0.43 0.45 0.49 0.51 0.55 0.57 0.59 0.59 0.57 0.57 0.56 0.61 0.60 0.58 0.55 0.54 0.53 0.47 0.50 0.47 0.48 0.48 0.46 0.45 0.41 0.37 0.42 0.48 0.55 0.56 0.54 0.55 0.58 0.61 0.60 0.61 0.61 0.64
0.24 0.32 0.32 0.31 0.31 0.28 0.25 0.26 0.25 0.23 0.22 0.24 0.20 0.18 0.16 0.17 0.16 0.15 0.24 0.22 0.21 0.22 0.19 0.17 0.15 0.13 0.16 0.17 0.18 0.20 0.22 0.24 0.26 0.24 0.24 0.25 0.26 0.28 0.31 0.33 0.33 0.33 0.34 0.36 0.38 0.38 0.40 0.40 0.41 0.43 0.47 0.52 0.53 0.54 0.55 0.58 0.56 0.58 0.59 0.63 0.60 0.58 0.56 0.54 0.51 0.51 0.50 0.52 0.54 0.53 0.55 0.56 0.50 0.49 0.46 0.45 0.49 0.51 0.52 0.52 0.55 0.58 0.62 0.62 0.62 0.64
0.23 0.28 0.31 0.28 0.27 0.27 0.26 0.24 0.24 0.23 0.19 0.22 0.23 0.17 0.18 0.19 0.17 0.16 0.16 0.16 0.18 0.19 0.24 0.17 0.11 0.12 0.18 0.16 0.16 0.24 0.22 0.18 0.19 0.20 0.22 0.25 0.27 0.28 0.28 0.29 0.32 0.34 0.36 0.38 0.39 0.40 0.40 0.40 0.41 0.44 0.48 0.50 0.51 0.52 0.56 0.60 0.60 0.61 0.62 0.64 0.60 0.60 0.57 0.54 0.52 0.49 0.51 0.48 0.46 0.42 0.39 0.37 0.38 0.36 0.39 0.37 0.38 0.43 0.48 0.50 0.55 0.58 0.61 0.63 0.63 0.64
0.28 0.28 0.28 0.25 0.24 0.24 0.24 0.23 0.26 0.24 0.19 0.18 0.20 0.21 0.19 0.19 0.19 0.20 0.18 0.17 0.16 0.15 0.25 0.21 0.10 0.11 0.17 0.16 0.16 0.19 0.20 0.21 0.25 0.24 0.24 0.26 0.27 0.29 0.29 0.29 0.31 0.32 0.34 0.37 0.41 0.42 0.40 0.39 0.41 0.45 0.47 0.49 0.49 0.53 0.60 0.61 0.62 0.63 0.65 0.64 0.61 0.59 0.57 0.55 0.52 0.51 0.51 0.51 0.48 0.45 0.42 0.41 0.40 0.37 0.41 0.44 0.44 0.45 0.50 0.54 0.55 0.57 0.60 0.63 0.63 0.64
0.23 0.24 0.24 0.24 0.22 0.21 0.22 0.20 0.26 0.21 0.18 0.17 0.26 0.21 0.20 0.18 0.18 0.20 0.20 0.18 0.17 0.21 0.19 0.18 0.17 0.11 0.10 0.15 0.19 0.19 0.18 0.20 0.24 0.24 0.25 0.27 0.29 0.30 0.30 0.31 0.32 0.34 0.36 0.37 0.37 0.39 0.40 0.41 0.42 0.45 0.47 0.49 0.50 0.56 0.58 0.58 0.61 0.61 0.64 0.63 0.61 0.60 0.59 0.58 0.55 0.53 0.50 0.50 0.48 0.45 0.45 0.44 0.43 0.41 0.40 0.44 0.45 0.47 0.48 0.49 0.54 0.56 0.58 0.61 0.63 0.64
0.24 0.19 0.19 0.18 0.19 0.19 0.19 0.21 0.29 0.23 0.18 0.23 0.26 0.22 0.20 0.20 0.22 0.23 0.20 0.20 0.21 0.16 0.13 0.22 0.20 0.11 0.10 0.15 0.17 0.17 0.14 0.17 0.20 0.23 0.25 0.27 0.29 0.30 0.31 0.32 0.32 0.34 0.38 0.37 0.37 0.37 0.39 0.42 0.43 0.46 0.50 0.53 0.55 0.56 0.54 0.56 0.60 0.63 0.65 0.64 0.63 0.61 0.60 0.59 0.56 0.54 0.53 0.51 0.48 0.47 0.46 0.44 0.46 0.45 0.43 0.45 0.46 0.45 0.48 0.46 0.48 0.52 0.57 0.58 0.61 0.64
0.22 0.18 0.22 0.22 0.21 0.19 0.21 0.25 0.22 0.22 0.18 0.26 0.25 0.24 0.24 0.23 0.22 0.22 0.20 0.20 0.21 0.17 0.11 0.19 0.20 0.10 0.09 0.14 0.18 0.18 0.13 0.14 0.17 0.22 0.25 0.27 0.28 0.28 0.30 0.31 0.33 0.34 0.37 0.38 0.39 0.40 0.42 0.43 0.46 0.51 0.57 0.56 0.55 0.56 0.57 0.59 0.62 0.63 0.64 0.63 0.62 0.61 0.60 0.60 0.56 0.55 0.53 0.52 0.51 0.49 0.47 0.44 0.45 0.47 0.46 0.45 0.43 0.44 0.44 0.44 0.47 0.48 0.49 0.54 0.57 0.60
0.22 0.22 0.22 0.19 0.18 0.20 0.28 0.24 0.25 0.24 0.27 0.29 0.26 0.23 0.22 0.22 0.22 0.22 0.20 0.19 0.17 0.13 0.13 0.18 0.21 0.14 0.09 0.13 0.15 0.18 0.17 0.17 0.18 0.20 0.25 0.26 0.27 0.28 0.30 0.31 0.32 0.33 0.36 0.36 0.37 0.41 0.43 0.48 0.49 0.50 0.49 0.52 0.54 0.56 0.57 0.59 0.61 0.63 0.63 0.63 0.61 0.62 0.61 0.60 0.57 0.55 0.54 0.54 0.52 0.49 0.47 0.45 0.45 0.47 0.46 0.45 0.44 0.44 0.43 0.40 0.41 0.46 0.49 0.51 0.52 0.56
0.18 0.22 0.20 0.21 0.22 0.23 0.22 0.21 0.24 0.25 0.26 0.25 0.23 0.22 0.22 0.21 0.23 0.20 0.20 0.21 0.13 0.10 0.17 0.19 0.17 0.17 0.09 0.11 0.19 0.18 0.19 0.17 0.19 0.22 0.24 0.25 0.25 0.26 0.27 0.29 0.31 0.33 0.34 0.36 0.36 0.38 0.40 0.44 0.45 0.46 0.45 0.48 0.51 0.53 0.55 0.57 0.61 0.62 0.63 0.63 0.61 0.62 0.62 0.59 0.58 0.55 0.55 0.54 0.52 0.50 0.48 0.47 0.47 0.47 0.47 0.45 0.44 0.44 0.42 0.41 0.40 0.41 0.43 0.46 0.51 0.54
0.18 0.18 0.21 0.24 0.26 0.22 0.21 0.19 0.23 0.23 0.25 0.23 0.23 0.22 0.17 0.16 0.18 0.15 0.18 0.14 0.13 0.11 0.19 0.19 0.17 0.14 0.12 0.11 0.14 0.17 0.19 0.19 0.19 0.20 0.22 0.22 0.23 0.24 0.26 0.28 0.29 0.31 0.33 0.35 0.38 0.39 0.41 0.41 0.41 0.41 0.42 0.46 0.48 0.49 0.51 0.54 0.58 0.59 0.61 0.61 0.60 0.61 0.61 0.58 0.57 0.54 0.55 0.53 0.53 0.50 0.48 0.48 0.48 0.48 0.48 0.47 0.47 0.47 0.45 0.44 0.42 0.40 0.39 0.40 0.42 0.47
0.17 0.21 0.21 0.23 0.25 0.25 0.24 0.18 0.23 0.20 0.22 0.22 0.20 0.20 0.17 0.12 0.11 0.11 0.12 0.14 0.14 0.16 0.21 0.19 0.20 0.13 0.15 0.15 0.17 0.18 0.20 0.21 0.21 0.21 0.22 0.21 0.22 0.23 0.25 0.27 0.29 0.30 0.32 0.34 0.36 0.38 0.41 0.40 0.39 0.40 0.41 0.45 0.48 0.49 0.51 0.53 0.54 0.57 0.58 0.60 0.59 0.61 0.61 0.58 0.55 0.55 0.54 0.53 0.52 0.50 0.48 0.48 0.48 0.48 0.48 0.48 0.48 0.48 0.48 0.48 0.45 0.42 0.41 0.39 0.39 0.40
0.15 0.17 0.22 0.23 0.20 0.28 0.24 0.23 0.23 0.23 0.26 0.23 0.23 0.22 0.19 0.17 0.13 0.11 0.12 0.11 0.13 0.17 0.22 0.24 0.16 0.12 0.10 0.17 0.18 0.19 0.20 0.20 0.22 0.23 0.23 0.23 0.23 0.23 0.24 0.27 0.30 0.29 0.30 0.31 0.33 0.36 0.38 0.40 0.40 0.41 0.42 0.44 0.46 0.47 0.51 0.53 0.54 0.55 0.55 0.55 0.55 0.57 0.59 0.56 0.53 0.53 0.53 0.53 0.52 0.50 0.49 0.48 0.48 0.48 0.48 0.49 0.49 0.49 0.48 0.49 0.47 0.47 0.45 0.42 0.42 0.42
0.16 0.16 0.24 0.24 0.27 0.27 0.24 0.27 0.26 0.25 0.25 0.28 0.27 0.26 0.22 0.19 0.22 0.14 0.16 0.15 0.14 0.15 0.17 0.18 0.14 0.15 0.14 0.23 0.22 0.22 0.22 0.21 0.21 0.21 0.20 0.20 0.21 0.22 0.22 0.23 0.25 0.25 0.27 0.29 0.32 0.35 0.37 0.37 0.39 0.41 0.42 0.42 0.43 0.48 0.51 0.51 0.51 0.51 0.51 0.53 0.55 0.56 0.58 0.55 0.53 0.53 0.52 0.51 0.51 0.49 0.46 0.47 0.47 0.47 0.48 0.48 0.49 0.50 0.50 0.49 0.48 0.48 0.48 0.47 0.45 0.45
0.17 0.16 0.22 0.23 0.24 0.25 0.25 0.28 0.28 0.28 0.17 0.25 0.26 0.19 0.20 0.24 0.23 0.20 0.21 0.21 0.18 0.15 0.12 0.19 0.18 0.17 0.19 0.20 0.21 0.22 0.22 0.21 0.21 0.21 0.21 0.21 0.21 0.22 0.22 0.22 0.23 0.24 0.26 0.29 0.32 0.33 0.33 0.35 0.37 0.40 0.40 0.42 0.44 0.47 0.47 0.48 0.49 0.49 0.50 0.51 0.53 0.56 0.58 0.54 0.52 0.51 0.51 0.50 0.48 0.48 0.47 0.47 0.47 0.47 0.47 0.48 0.48 0.48 0.50 0.50 0.49 0.49 0.50 0.51 0.49 0.47
0.15 0.15 0.22 0.21 0.19 0.25 0.27 0.29 0.28 0.28 0.26 0.26 0.20 0.21 0.29 0.30 0.28 0.23 0.16 0.18 0.17 0.14 0.14 0.17 0.15 0.16 0.16 0.14 0.23 0.23 0.20 0.21 0.21 0.21 0.22 0.23 0.23 0.22 0.23 0.23 0.23 0.24 0.27 0.30 0.31 0.32 0.33 0.35 0.37 0.39 0.42 0.44 0.45 0.46 0.47 0.47 0.49 0.50 0.51 0.51 0.52 0.54 0.54 0.53 0.52 0.51 0.51 0.49 0.48 0.48 0.48 0.48 0.48 0.48 0.49 0.49 0.49 0.50 0.49 0.49 0.49 0.49 0.49 0.50 0.51 0.50
0.21 0.15 0.18 0.22 0.22 0.25 0.26 0.25 0.23 0.26 0.27 0.22 0.21 0.33 0.23 0.20 0.19 0.23 0.22 0.16 0.14 0.14 0.15 0.18 0.19 0.18 0.16 0.15 0.21 0.20 0.20 0.21 0.21 0.22 0.23 0.23 0.24 0.23 0.24 0.24 0.25 0.27 0.28 0.30 0.31 0.33 0.34 0.36 0.38 0.41 0.45 0.48 0.49 0.48 0.48 0.48 0.49 0.50 0.51 0.53 0.54 0.55 0.55 0.54 0.53 0.52 0.51 0.51 0.50 0.50 0.49 0.50 0.50 0.51 0.50 0.51 0.51 0.50 0.48 0.47 0.48 0.48 0.48 0.49 0.50 0.49
0.27 0.17 0.17 0.25 0.22 0.25 0.25 0.24 0.17 0.21 0.30 0.29 0.30 0.25 0.27 0.24 0.20 0.18 0.19 0.20 0.18 0.16 0.16 0.16 0.18 0.18 0.22 0.21 0.17 0.15 0.22 0.22 0.22 0.22 0.23 0.24 0.25 0.25 0.25 0.27 0.28 0.29 0.30 0.31 0.33 0.34 0.36 0.38 0.40 0.41 0.43 0.49 0.47 0.46 0.47 0.47 0.49 0.49 0.51 0.52 0.54 0.57 0.56 0.55 0.53 0.52 0.51 0.52 0.51 0.50 0.51 0.51 0.51 0.51 0.51 0.52 0.51 0.49 0.48 0.49 0.48 0.48 0.48 0.48 0.48 0.47
0.24 0.25 0.15 0.20 0.26 0.26 0.18 0.21 0.19 0.21 0.22 0.25 0.26 0.24 0.24 0.24 0.27 0.24 0.23 0.20 0.16 0.15 0.15 0.14 0.14 0.16 0.19 0.23 0.23 0.22 0.21 0.23 0.24 0.25 0.26 0.26 0.27 0.28 0.28 0.28 0.28 0.30 0.31 0.32 0.34 0.36 0.37 0.39 0.41 0.42 0.49 0.48 0.46 0.46 0.46 0.47 0.48 0.50 0.52 0.52 0.52 0.53 0.54 0.53 0.53 0.52 0.52 0.53 0.52 0.51 0.51 0.51 0.52 0.52 0.53 0.52 0.51 0.49 0.49 0.49 0.49 0.48 0.48 0.47 0.45 0.46
0.26 0.24 0.17 0.19 0.20 0.19 0.20 0.24 0.23 0.24 0.25 0.21 0.22 0.22 0.25 0.24 0.22 0.20 0.18 0.22 0.20 0.18 0.15 0.15 0.13 0.16 0.20 0.25 0.24 0.23 0.23 0.22 0.24 0.25 0.28 0.29 0.29 0.29 0.30 0.30 0.31 0.31 0.32 0.34 0.36 0.36 0.37 0.37 0.40 0.43 0.50 0.45 0.45 0.45 0.46 0.48 0.49 0.50 0.50 0.51 0.52 0.53 0.52 0.52 0.53 0.52 0.52 0.52 0.53 0.52 0.52 0.51 0.52 0.52 0.53 0.51 0.50 0.49 0.49 0.49 0.50 0.49 0.47 0.44 0.45 0.46
0.33 0.28 0.24 0.18 0.19 0.20 0.22 0.25 0.29 0.31 0.29 0.25 0.23 0.19 0.21 0.23 0.25 0.22 0.18 0.19 0.22 0.22 0.21 0.18 0.16 0.15 0.21 0.27 0.27 0.26 0.24 0.25 0.25 0.26 0.26 0.28 0.31 0.33 0.33 0.33 0.33 0.33 0.33 0.33 0.34 0.36 0.37 0.39 0.41 0.46 0.46 0.44 0.45 0.46 0.48 0.49 0.49 0.50 0.51 0.50 0.51 0.51 0.52 0.53 0.53 0.53 0.53 0.53 0.53 0.52 0.53 0.52 0.51 0.52 0.51 0.50 0.49 0.48 0.49 0.50 0.50 0.49 0.46 0.45 0.45 0.45
0.31 0.22 0.16 0.15 0.18 0.19 0.21 0.24 0.25 0.26 0.25 0.23 0.21 0.23 0.21 0.18 0.21 0.22 0.23 0.26 0.24 0.23 0.20 0.19 0.16 0.18 0.23 0.26 0.28 0.26 0.25 0.25 0.26 0.27 0.26 0.27 0.29 0.32 0.34 0.35 0.34 0.33 0.33 0.34 0.35 0.37 0.38 0.40 0.45 0.42 0.41 0.42 0.45 0.47 0.48 0.49 0.49 0.50 0.50 0.50 0.50 0.50 0.52 0.53 0.54 0.53 0.52 0.52 0.52 0.52 0.52 0.51 0.52 0.51 0.51 0.49 0.50 0.50 0.50 0.50 0.49 0.49 0.47 0.47 0.46 0.45
0.20 0.23 0.21 0.16 0.14 0.12 0.13 0.15 0.16 0.21 0.23 0.24 0.25 0.26 0.29 0.31 0.31 0.33 0.30 0.28 0.21 0.19 0.18 0.16 0.13 0.16 0.23 0.27 0.28 0.29 0.28 0.27 0.27 0.28 0.28 0.26 0.29 0.31 0.34 0.35 0.35 0.34 0.35 0.36 0.36 0.37 0.40 0.41 0.39 0.38 0.40 0.42 0.45 0.46 0.48 0.48 0.48 0.48 0.49 0.49 0.49 0.51 0.54 0.54 0.54 0.52 0.51 0.52 0.51 0.52 0.51 0.52 0.52 0.51 0.50 0.50 0.50 0.50 0.50 0.49 0.48 0.48 0.47 0.47 0.47 0.48
0.25 0.19 0.15 0.10 0.09 0.07 0.06 0.08 0.11 0.16 0.22 0.28 0.31 0.29 0.29 0.30 0.30 0.29 0.22 0.25 0.21 0.20 0.20 0.17 0.16 0.20 0.22 0.26 0.31 0.28 0.29 0.27 0.27 0.26 0.27 0.28 0.28 0.28 0.32 0.37 0.36 0.35 0.35 0.37 0.37 0.38 0.39 0.41 0.40 0.40 0.44 0.43 0.44 0.44 0.47 0.48 0.48 0.48 0.48 0.48 0.50 0.50 0.52 0.53 0.53 0.52 0.51 0.51 0.50 0.49 0.50 0.51 0.51 0.51 0.51 0.51 0.50 0.50 0.49 0.49 0.48 0.48 0.49 0.50 0.49 0.49
0.19 0.21 0.21 0.20 0.16 0.13 0.13 0.15 0.18 0.21 0.19 0.17 0.19 0.21 0.21 0.25 0.28 0.30 0.30 0.25 0.21 0.22 0.21 0.22 0.22 0.22 0.23 0.24 0.25 0.29 0.30 0.28 0.29 0.30 0.29 0.29 0.31 0.32 0.33 0.34 0.35 0.37 0.38 0.37 0.37 0.38 0.41 0.41 0.43 0.40 0.43 0.44 0.44 0.44 0.45 0.45 0.45 0.44 0.45 0.46 0.47 0.49 0.51 0.51 0.51 0.51 0.50 0.49 0.48 0.48 0.49 0.50 0.50 0.51 0.51 0.51 0.50 0.50 0.50 0.49 0.50 0.49 0.49 0.51 0.50 0.50
0.22 0.19 0.22 0.23 0.22 0.21 0.21 0.19 0.20 0.21 0.19 0.20 0.19 0.17 0.19 0.19 0.20 0.22 0.22 0.18 0.23 0.22 0.18 0.24 0.28 0.26 0.27 0.30 0.31 0.30 0.30 0.33 0.33 0.33 0.32 0.32 0.33 0.34 0.35 0.36 0.38 0.40 0.40 0.38 0.39 0.38 0.38 0.40 0.38 0.41 0.45 0.43 0.42 0.42 0.41 0.42 0.42 0.41 0.43 0.44 0.46 0.48 0.50 0.51 0.50 0.49 0.48 0.48 0.48 0.49 0.50 0.51 0.51 0.51 0.51 0.51 0.50 0.50 0.51 0.50 0.50 0.49 0.50 0.51 0.50 0.50
0.22 0.17 0.20 0.21 0.17 0.16 0.16 0.16 0.18 0.18 0.19 0.19 0.18 0.18 0.18 0.18 0.18 0.17 0.17 0.19 0.21 0.19 0.17 0.20 0.24 0.26 0.28 0.29 0.30 0.33 0.34 0.33 0.34 0.40 0.39 0.40 0.36 0.36 0.36 0.36 0.38 0.40 0.38 0.37 0.37 0.37 0.38 0.39 0.40 0.42 0.44 0.41 0.40 0.39 0.40 0.40 0.40 0.42 0.44 0.46 0.48 0.49 0.49 0.50 0.48 0.47 0.47 0.48 0.49 0.50 0.51 0.50 0.51 0.51 0.51 0.51 0.51 0.50 0.49 0.49 0.49 0.49 0.50 0.51 0.52 0.53
0.24 0.18 0.19 0.19 0.17 0.16 0.15 0.16 0.18 0.18 0.18 0.17 0.16 0.16 0.17 0.17 0.17 0.18 0.19 0.20 0.21 0.20 0.21 0.20 0.19 0.21 0.25 0.26 0.27 0.29 0.35 0.38 0.38 0.38 0.39 0.42 0.42 0.42 0.41 0.39 0.40 0.39 0.37 0.37 0.37 0.38 0.40 0.41 0.41 0.41 0.41 0.39 0.39 0.39 0.38 0.38 0.39 0.41 0.43 0.45 0.47 0.48 0.48 0.48 0.46 0.46 0.46 0.47 0.49 0.51 0.50 0.49 0.49 0.50 0.50 0.51 0.50 0.49 0.48 0.48 0.49 0.50 0.50 0.52 0.53 0.54
0.20 0.16 0.18 0.18 0.16 0.13 0.13 0.15 0.16 0.16 0.15 0.14 0.15 0.16 0.17 0.18 0.18 0.18 0.19 0.18 0.18 0.19 0.21 0.21 0.20 0.19 0.23 0.27 0.29 0.33 0.37 0.38 0.37 0.34 0.36 0.45 0.40 0.39 0.39 0.38 0.38 0.38 0.38 0.38 0.39 0.40 0.42 0.41 0.40 0.39 0.38 0.40 0.41 0.38 0.37 0.38 0.39 0.41 0.43 0.45 0.45 0.45 0.46 0.45 0.46 0.46 0.47 0.47 0.49 0.48 0.47 0.47 0.48 0.49 0.50 0.50 0.49 0.48 0.48 0.49 0.50 0.51 0.52 0.53 0.54 0.55
0.20 0.15 0.18 0.18 0.15 0.13 0.14 0.16 0.16 0.17 0.17 0.16 0.15 0.14 0.14 0.15 0.14 0.14 0.14 0.17 0.19 0.20 0.21 0.21 0.20 0.19 0.20 0.24 0.30 0.32 0.33 0.33 0.33 0.34 0.36 0.38 0.41 0.40 0.39 0.39 0.39 0.39 0.39 0.40 0.41 0.41 0.41 0.40 0.39 0.38 0.38 0.40 0.40 0.39 0.38 0.38 0.39 0.41 0.42 0.44 0.43 0.44 0.44 0.44 0.45 0.45 0.46 0.47 0.47 0.47 0.46 0.47 0.48 0.50 0.50 0.49 0.48 0.48 0.48 0.49 0.50 0.50 0.52 0.53 0.54 0.55
0.15 0.14 0.12 0.12 0.11 0.10 0.11 0.14 0.15 0.16 0.16 0.13 0.11 0.11 0.14 0.15 0.16 0.17 0.20 0.22 0.24 0.25 0.22 0.20 0.17 0.19 0.21 0.26 0.28 0.28 0.31 0.32 0.33 0.34 0.36 0.39 0.41 0.42 0.42 0.39 0.40 0.41 0.42 0.41 0.41 0.41 0.41 0.40 0.40 0.41 0.42 0.40 0.40 0.38 0.39 0.40 0.40 0.41 0.43 0.43 0.43 0.43 0.42 0.43 0.44 0.45 0.46 0.46 0.46 0.46 0.46 0.47 0.49 0.49 0.48 0.48 0.48 0.47 0.47 0.48 0.48 0.50 0.51 0.53 0.55 0.56
0.17 0.16 0.14 0.14 0.11 0.10 0.11 0.14 0.17 0.15 0.11 0.08 0.11 0.17 0.19 0.19 0.21 0.21 0.20 0.21 0.25 0.26 0.25 0.26 0.26 0.27 0.28 0.29 0.29 0.30 0.31 0.32 0.35 0.39 0.44 0.45 0.47 0.48 0.41 0.42 0.42 0.43 0.42 0.43 0.43 0.43 0.43 0.43 0.42 0.44 0.45 0.45 0.45 0.42 0.42 0.42 0.42 0.43 0.45 0.44 0.43 0.42 0.42 0.43 0.44 0.46 0.45 0.45 0.45 0.45 0.45 0.48 0.48 0.47 0.47 0.47 0.46 0.45 0.45 0.45 0.46 0.49 0.52 0.53 0.54 0.54
0.15 0.16 0.15 0.16 0.13 0.11 0.13 0.14 0.12 0.09 0.09 0.12 0.18 0.20 0.23 0.25 0.26 0.23 0.22 0.21 0.21 0.21 0.21 0.23 0.26 0.27 0.29 0.31 0.33 0.34 0.35 0.38 0.43 0.43 0.42 0.44 0.46 0.47 0.44 0.43 0.42 0.43 0.44 0.44 0.44 0.44 0.46 0.46 0.46 0.46 0.47 0.48 0.48 0.47 0.45 0.43 0.44 0.44 0.43 0.42 0.41 0.42 0.42 0.43 0.43 0.44 0.45 0.44 0.43 0.44 0.45 0.47 0.46 0.46 0.46 0.46 0.45 0.44 0.44 0.45 0.48 0.50 0.52 0.53 0.53 0.53
0.15 0.14 0.15 0.16 0.15 0.15 0.14 0.13 0.10 0.09 0.13 0.17 0.18 0.20 0.23 0.22 0.20 0.22 0.21 0.21 0.23 0.23 0.25 0.25 0.26 0.27 0.29 0.32 0.32 0.33 0.37 0.40 0.45 0.45 0.44 0.45 0.49 0.47 0.44 0.44 0.44 0.45 0.45 0.47 0.48 0.50 0.48 0.47 0.48 0.49 0.50 0.52 0.48 0.46 0.44 0.42 0.43 0.42 0.40 0.42 0.41 0.42 0.42 0.43 0.44 0.43 0.43 0.42 0.42 0.44 0.46 0.46 0.45 0.45 0.45 0.44 0.43 0.43 0.44 0.46 0.49 0.51 0.53 0.54 0.54 0.55
0.17 0.17 0.17 0.15 0.17 0.12 0.13 0.13 0.12 0.16 0.16 0.14 0.14 0.20 0.23 0.21 0.24 0.22 0.17 0.17 0.21 0.25 0.27 0.25 0.26 0.29 0.32 0.34 0.38 0.39 0.43 0.44 0.41 0.41 0.46 0.46 0.48 0.49 0.48 0.49 0.49 0.50 0.52 0.53 0.52 0.50 0.50 0.50 0.50 0.50 0.48 0.46 0.44 0.42 0.41 0.42 0.41 0.41 0.40 0.40 0.40 0.41 0.42 0.43 0.42 0.41 0.41 0.41 0.42 0.44 0.46 0.46 0.45 0.44 0.44 0.43 0.43 0.43 0.44 0.47 0.50 0.52 0.54 0.53 0.53 0.53
0.21 0.20 0.21 0.18 0.15 0.16 0.13 0.12 0.13 0.11 0.09 0.09 0.23 0.28 0.33 0.34 0.33 0.35 0.28 0.18 0.22 0.30 0.33 0.33 0.32 0.36 0.37 0.41 0.43 0.42 0.46 0.39 0.36 0.36 0.44 0.47 0.49 0.52 0.54 0.56 0.55 0.54 0.54 0.53 0.52 0.51 0.51 0.51 0.49 0.46 0.44 0.42 0.43 0.43 0.43 0.42 0.40 0.40 0.39 0.39 0.40 0.41 0.42 0.42 0.41 0.41 0.40 0.39 0.42 0.45 0.47 0.46 0.45 0.44 0.44 0.43 0.42 0.43 0.46 0.50 0.52 0.52 0.54 0.53 0.52 0.52
0.21 0.22 0.21 0.20 0.16 0.16 0.15 0.13 0.12 0.09 0.09 0.13 0.23 0.29 0.32 0.35 0.32 0.33 0.23 0.14 0.23 0.32 0.36 0.33 0.33 0.37 0.40 0.41 0.42 0.45 0.40 0.33 0.32 0.36 0.45 0.50 0.54 0.58 0.55 0.54 0.54 0.55 0.54 0.52 0.51 0.50 0.49 0.50 0.47 0.44 0.43 0.42 0.41 0.43 0.44 0.41 0.40 0.39 0.38 0.40 0.41 0.41 0.41 0.41 0.40 0.40 0.38 0.39 0.42 0.45 0.46 0.46 0.45 0.45 0.43 0.42 0.43 0.45 0.47 0.51 0.51 0.53 0.54 0.54 0.54 0.53
0.16 0.18 0.20 0.16 0.13 0.14 0.14 0.13 0.10 0.12 0.12 0.20 0.30 0.30 0.29 0.31 0.30 0.25 0.12 0.10 0.27 0.34 0.38 0.37 0.37 0.38 0.39 0.43 0.45 0.44 0.40 0.33 0.34 0.43 0.54 0.57 0.59 0.58 0.57 0.55 0.54 0.53 0.52 0.51 0.51 0.50 0.48 0.46 0.44 0.43 0.43 0.41 0.42 0.44 0.43 0.41 0.40 0.39 0.39 0.40 0.41 0.41 0.40 0.40 0.40 0.39 0.39 0.40 0.43 0.45 0.44 0.44 0.44 0.45 0.45 0.43 0.43 0.46 0.50 0.53 0.53 0.53 0.54 0.54 0.54 0.53
0.17 0.18 0.20 0.15 0.18 0.18 0.17 0.15 0.16 0.15 0.18 0.25 0.27 0.30 0.31 0.31 0.26 0.14 0.10 0.17 0.29 0.33 0.37 0.39 0.42 0.45 0.41 0.40 0.45 0.42 0.46 0.48 0.50 0.53 0.60 0.61 0.62 0.61 0.61 0.58 0.55 0.52 0.50 0.49 0.50 0.48 0.43 0.44 0.44 0.42 0.43 0.42 0.43 0.44 0.43 0.41 0.41 0.40 0.40 0.41 0.41 0.40 0.41 0.41 0.40 0.40 0.39 0.40 0.43 0.43 0.42 0.42 0.44 0.44 0.44 0.43 0.43 0.48 0.52 0.54 0.54 0.54 0.54 0.53 0.54 0.54
0.17 0.18 0.18 0.18 0.16 0.15 0.14 0.14 0.14 0.15 0.21 0.30 0.34 0.28 0.33 0.23 0.15 0.15 0.26 0.32 0.34 0.34 0.38 0.39 0.39 0.42 0.43 0.42 0.44 0.48 0.54 0.58 0.59 0.56 0.56 0.60 0.61 0.60 0.57 0.55 0.53 0.50 0.49 0.47 0.46 0.43 0.44 0.44 0.45 0.43 0.43 0.42 0.43 0.44 0.42 0.42 0.41 0.40 0.40 0.40 0.40 0.42 0.43 0.41 0.40 0.39 0.39 0.40 0.40 0.40 0.40 0.41 0.43 0.43 0.42 0.42 0.45 0.49 0.52 0.55 0.56 0.55 0.55 0.54 0.53 0.53
0.16 0.15 0.13 0.14 0.17 0.18 0.17 0.15 0.14 0.09 0.24 0.33 0.34 0.27 0.34 0.18 0.21 0.29 0.30 0.33 0.37 0.39 0.39 0.40 0.41 0.42 0.44 0.43 0.47 0.49 0.53 0.58 0.55 0.56 0.57 0.60 0.58 0.55 0.52 0.50 0.48 0.44 0.43 0.42 0.44 0.46 0.45 0.43 0.43 0.44 0.44 0.43 0.42 0.42 0.41 0.41 0.40 0.40 0.40 0.40 0.42 0.44 0.42 0.40 0.39 0.38 0.38 0.39 0.39 0.40 0.39 0.39 0.40 0.40 0.40 0.41 0.46 0.50 0.52 0.54 0.55 0.55 0.55 0.53 0.53 0.54
0.21 0.16 0.14 0.15 0.17 0.14 0.14 0.13 0.13 0.18 0.27 0.31 0.31 0.24 0.30 0.32 0.34 0.35 0.35 0.31 0.36 0.39 0.40 0.40 0.41 0.44 0.46 0.48 0.50 0.49 0.53 0.56 0.57 0.58 0.58 0.56 0.53 0.50 0.48 0.45 0.43 0.42 0.43 0.45 0.45 0.45 0.44 0.42 0.43 0.43 0.44 0.42 0.41 0.41 0.41 0.41 0.40 0.40 0.40 0.41 0.45 0.42 0.41 0.40 0.39 0.39 0.40 0.39 0.40 0.40 0.38 0.36 0.36 0.37 0.39 0.42 0.46 0.50 0.52 0.54 0.55 0.55 0.54 0.53 0.53 0.55
0.19 0.17 0.20 0.16 0.21 0.20 0.16 0.17 0.20 0.24 0.26 0.28 0.31 0.34 0.35 0.38 0.40 0.40 0.40 0.37 0.36 0.39 0.45 0.42 0.42 0.45 0.48 0.50 0.51 0.52 0.52 0.54 0.58 0.58 0.55 0.51 0.48 0.45 0.43 0.43 0.43 0.43 0.44 0.44 0.43 0.44 0.42 0.42 0.42 0.43 0.43 0.43 0.40 0.41 0.41 0.41 0.40 0.39 0.40 0.44 0.42 0.41 0.40 0.40 0.40 0.41 0.39 0.38 0.37 0.36 0.35 0.35 0.34 0.34 0.37 0.42 0.47 0.49 0.52 0.54 0.54 0.53 0.54 0.54 0.54 0.56
0.26 0.23 0.25 0.23 0.19 0.24 0.25 0.25 0.26 0.26 0.26 0.32 0.37 0.38 0.36 0.35 0.39 0.43 0.42 0.39 0.42 0.45 0.45 0.44 0.46 0.47 0.48 0.51 0.49 0.50 0.52 0.56 0.58 0.57 0.54 0.49 0.45 0.44 0.44 0.44 0.44 0.45 0.45 0.44 0.44 0.44 0.42 0.44 0.44 0.43 0.44 0.44 0.41 0.40 0.41 0.41 0.42 0.40 0.43 0.43 0.41 0.41 0.41 0.41 0.41 0.39 0.38 0.37 0.36 0.34 0.33 0.32 0.33 0.33 0.36 0.42 0.46 0.50 0.53 0.54 0.54 0.53 0.53 0.54 0.55 0.56
0.23 0.24 0.24 0.20 0.21 0.19 0.14 0.22 0.26 0.29 0.30 0.29 0.30 0.32 0.35 0.42 0.41 0.46 0.47 0.47 0.45 0.46 0.46 0.49 0.50 0.50 0.51 0.52 0.51 0.50 0.51 0.58 0.57 0.54 0.50 0.46 0.45 0.45 0.45 0.44 0.43 0.42 0.42 0.41 0.42 0.42 0.43 0.43 0.43 0.44 0.44 0.44 0.43 0.40 0.40 0.41 0.41 0.43 0.45 0.42 0.42 0.42 0.43 0.42 0.41 0.39 0.38 0.36 0.33 0.33 0.32 0.31 0.31 0.31 0.35 0.39 0.45 0.50 0.52 0.54 0.55 0.55 0.54 0.55 0.56 0.57
0.20 0.30 0.27 0.27 0.24 0.19 0.16 0.20 0.23 0.26 0.26 0.29 0.30 0.31 0.35 0.39 0.40 0.43 0.46 0.47 0.48 0.49 0.50 0.51 0.52 0.52 0.54 0.52 0.53 0.53 0.56 0.59 0.54 0.49 0.46 0.46 0.46 0.45 0.43 0.42 0.42 0.42 0.42 0.44 0.44 0.43 0.44 0.44 0.43 0.45 0.45 0.46 0.46 0.42 0.40 0.41 0.41 0.44 0.44 0.44 0.43 0.43 0.44 0.42 0.39 0.38 0.36 0.34 0.33 0.31 0.30 0.30 0.31 0.32 0.34 0.37 0.43 0.48 0.50 0.52 0.56 0.56 0.55 0.55 0.57 0.57
0.26 0.28 0.21 0.21 0.18 0.18 0.20 0.21 0.22 0.25 0.28 0.29 0.32 0.40 0.41 0.41 0.42 0.41 0.45 0.47 0.49 0.49 0.50 0.52 0.56 0.55 0.55 0.53 0.59 0.59 0.54 0.52 0.50 0.48 0.46 0.46 0.46 0.44 0.42 0.41 0.41 0.40 0.41 0.41 0.43 0.43 0.43 0.43 0.43 0.44 0.46 0.48 0.48 0.46 0.42 0.42 0.42 0.44 0.45 0.44 0.44 0.45 0.44 0.42 0.41 0.38 0.35 0.33 0.32 0.30 0.29 0.29 0.30 0.31 0.32 0.35 0.41 0.47 0.51 0.51 0.54 0.56 0.58 0.60 0.62 0.61
0.23 0.20 0.24 0.23 0.19 0.16 0.16 0.19 0.25 0.21 0.20 0.25 0.31 0.34 0.38 0.44 0.44 0.41 0.42 0.45 0.48 0.49 0.51 0.51 0.53 0.57 0.59 0.59 0.59 0.56 0.50 0.48 0.48 0.48 0.47 0.48 0.47 0.44 0.42 0.40 0.40 0.40 0.41 0.42 0.43 0.43 0.43 0.44 0.43 0.45 0.46 0.47 0.48 0.47 0.44 0.43 0.43 0.45 0.46 0.46 0.46 0.45 0.43 0.42 0.39 0.37 0.35 0.33 0.31 0.28 0.28 0.28 0.29 0.29 0.29 0.32 0.37 0.42 0.47 0.54 0.57 0.59 0.59 0.59 0.63 0.64
0.22 0.23 0.24 0.20 0.18 0.17 0.21 0.24 0.26 0.26 0.25 0.26 0.31 0.38 0.41 0.41 0.43 0.41 0.41 0.45 0.48 0.51 0.53 0.53 0.52 0.54 0.55 0.55 0.57 0.56 0.53 0.49 0.48 0.49 0.48 0.48 0.47 0.43 0.41 0.39 0.38 0.39 0.40 0.41 0.41 0.42 0.42 0.44 0.44 0.44 0.44 0.44 0.45 0.44 0.44 0.43 0.44 0.46 0.46 0.46 0.45 0.45 0.43 0.42 0.39 0.37 0.35 0.33 0.31 0.29 0.30 0.30 0.29 0.28 0.28 0.30 0.33 0.38 0.42 0.48 0.54 0.58 0.60 0.62 0.62 0.63
Wind_Speed
11 12 13 12 12 12 12 12 13 12 12 13 13 15 15 15 16 15 14 15 16 18 20 21 21 21 21 21 21 21 21 22 23 22 22 22 22 21 21 21 21 21 21 20 20 20 21 21 20 20 20 19 18 17 17 16 15 15 15 15 15 14 14 14 14 14 14 14 15 16 16 17 18 19 19 20 20 21 21 21 22 22 23 24 25 26
12 13 12 11 11 11 12 12 13 13 13 14 14 15 15 16 15 15 15 15 16 18 19 19 21 22 23 23 23 22 22 22 23 23 22 22 22 21 22 22 22 21 20 19 19 20 21 21 20 20 20 19 19 18 17 17 16 15 15 15 15 14 14 14 14 14 14 15 15 16 16 17 18 19 20 20 21 21 22 22 22 22 23 24 25 26
13 13 11 11 11 11 12 13 13 13 13 14 14 15 15 14 14 14 15 15 16 17 18 18 19 21 22 23 23 24 23 23 22 22 22 22 21 21 21 21 21 20 19 18 19 20 20 20 20 20 20 20 19 18 17 17 16 16 16 16 15 15 15 15 15 15 15 15 16 16 17 17 18 19 20 21 21 22 22 22 23 23 23 24 25 26
13 12 10 11 13 13 13 13 14 13 14 14 14 14 14 13 14 14 13 14 15 16 17 18 19 20 21 22 23 24 24 23 22 22 22 21 21 21 20 19 18 19 18 18 18 19 19 19 20 20 20 20 19 18 17 17 17 17 16 16 15 15 15 15 15 15 16 16 16 17 17 18 18 19 19 20 21 21 22 22 23 23 24 25 25 25
13 11 11 12 14 14 14 14 14 14 14 14 14 15 15 13 14 14 12 12 14 15 16 17 18 19 18 19 19 20 21 22 22 22 22 21 21 20 19 18 18 18 18 17 18 18 18 18 19 20 20 19 19 18 18 17 17 17 17 17 16 16 16 16 16 16 16 16 17 17 17 18 18 18 19 19 20 21 22 22 23 23 25 25 26 26
13 12 13 14 14 15 15 15 15 15 15 15 15 15 15 14 14 14 13 13 14 14 14 14 15 14 14 16 16 15 16 18 19 20 20 20 19 19 19 19 18 18 18 17 17 18 18 18 19 20 20 19 19 19 18 18 18 18 18 17 17 17 16 16 16 16 16 16 17 17 17 17 18 18 19 19 20 21 22 22 23 24 25 26 26 27
13 13 14 14 15 16 16 16 15 15 15 14 13 13 13 14 13 13 13 14 13 13 12 14 15 13 13 15 16 15 15 16 16 18 19 19 19 19 19 19 18 18 18 18 18 18 18 18 19 19 19 19 19 19 18 18 18 18 18 18 18 18 17 17 17 16 17 17 17 17 17 17 18 18 19 19 20 21 22 23 24 24 25 25 26 27
12 12 13 14 15 15 15 15 14 14 15 13 11 12 13 14 14 13 14 14 13 13 14 15 16 16 16 15 14 15 16 16 17 17 18 18 18 18 19 19 18 18 18 18 18 18 18 18 19 19 19 20 20 19 18 18 19 19 19 19 19 19 18 18 18 18 17 17 18 18 18 18 18 19 19 20 21 21 22 23 24 25 25 26 26 27
11 12 13 13 13 14 14 12 11 13 14 12 11 12 12 13 14 14 14 14 14 14 15 15 15 16 16 14 14 15 17 17 18 18 18 18 18 18 19 19 19 19 19 19 19 18 18 19 19 19 20 20 20 19 19 19 19 20 20 20 20 20 20 20 20 19 19 19 19 19 19 19 19 19 20 21 21 22 22 23 24 25 25 26 27 27
11 11 12 12 13 13 12 10 11 13 13 11 11 11 12 13 14 14 15 15 14 15 16 15 14 15 15 14 14 15 16 17 18 18 17 18 18 18 19 19 19 19 19 19 19 19 19 19 19 19 19 19 19 19 20 20 20 20 20 21 21 21 21 21 21 21 20 20 20 20 20 20 20 20 21 21 22 23 23 24 24 25 26 27 27 28
10 10 11 13 13 12 11 10 11 12 11 11 12 12 13 14 14 14 15 15 15 17 16 15 14 16 15 14 14 15 15 16 17 17 17 17 18 18 19 19 19 19 19 20 20 20 19 19 19 20 20 20 20 20 20 20 20 21 21 22 22 23 23 23 22 22 22 22 22 22 22 22 22 22 22 22 22 23 24 24 25 25 26 27 28 29
12 12 12 13 14 13 12 12 12 12 12 13 13 13 14 14 14 15 15 15 16 16 14 13 14 16 16 14 13 14 14 15 16 16 16 17 18 19 19 20 20 20 20 20 20 20 20 20 20 20 20 21 20 21 21 21 22 22 23 23 24 24 24 24 24 24 23 23 23 23 23 23 23 23 23 23 23 24 24 25 25 26 27 27 28 29
14 14 14 13 14 15 15 14 13 13 15 15 15 15 15 15 15 16 15 15 17 16 13 13 14 16 17 17 16 16 15 16 16 16 17 18 18 19 20 20 21 21 21 21 21 21 21 21 21 21 21 21 21 21 22 22 22 23 24 24 25 25 25 25 25 25 24 24 24 24 24 24 24 24 24 24 25 25 25 25 26 27 27 28 29 29
14 13 14 14 14 16 17 16 14 14 15 17 16 17 17 16 16 17 16 16 18 16 14 14 15 17 18 18 19 18 17 17 17 18 18 18 19 19 20 20 21 21 22 22 22 22 22 21 22 22 22 22 22 22 22 23 23 24 24 25 26 26 26 26 26 26 26 25 25 25 25 25 25 25 25 25 26 26 26 26 26 27 28 29 30 30
15 14 13 14 13 14 17 17 17 16 16 18 18 18 19 19 18 18 17 17 17 15 14 15 16 18 17 15 15 16 17 18 18 19 19 19 19 20 20 21 21 22 22 22 22 22 22 22 22 22 22 22 22 22 23 23 23 24 25 26 26 27 26 26 26 26 26 26 26 26 26 26 26 26 26 26 26 27 27 27 27 28 29 29 30 31
17 16 14 14 13 14 16 17 18 18 18 18 18 20 22 21 20 20 19 18 18 17 18 18 19 20 19 18 18 18 18 19 19 19 20 20 20 20 20 21 22 22 22 22 23 23 23 23 23 23 23 23 22 22 23 23 24 24 25 26 26 27 27 26 26 26 26 27 27 27 27 26 26 27 27 27 27 27 28 28 28 29 29 30 31 32
17 16 14 15 16 16 18 18 18 19 18 17 19 21 22 22 21 22 21 19 19 22 23 23 23 23 22 23 23 21 20 20 20 20 20 21 21 21 21 21 22 22 22 22 23 23 23 24 24 23 23 23 23 23 23 24 24 24 25 26 27 27 27 26 26 27 27 27 27 27 27 27 27 27 28 28 28 28 28 29 29 30 30 30 31 32
18 18 17 18 18 18 18 19 20 22 21 20 21 20 20 20 22 22 22 20 21 24 25 25 25 24 23 22 20 21 21 21 21 21 21 22 21 21 21 21 22 22 22 22 23 23 23 24 24 24 24 24 24 24 24 24 24 25 25 26 27 27 27 26 26 27 27 27 27 27 27 27 27 28 28 29 29 29 29 29 30 30 31 31 32 32
18 20 20 19 19 18 18 20 21 21 22 23 23 21 20 22 23 22 22 23 24 24 24 25 26 26 25 23 20 21 22 22 22 22 21 22 22 22 21 21 22 22 22 22 23 23 24 24 25 25 25 25 24 24 24 25 25 25 26 27 27 27 27 26 26 27 27 27 27 27 27 27 28 28 29 29 30 30 30 30 31 31 32 32 32 33
18 20 21 19 18 19 19 21 22 21 20 22 23 23 24 25 25 25 24 24 25 25 25 27 27 27 26 25 24 23 23 23 23 22 22 22 22 22 22 22 22 22 22 23 23 24 24 25 25 25 25 25 24 25 25 26 26 26 26 27 27 27 27 27 27 27 27 27 27 27 28 28 28 29 30 30 30 31 31 31 32 32 32 32 33 33
19 21 22 21 20 21 21 21 23 23 21 21 22 23 25 25 25 27 27 27 27 27 26 27 28 28 26 25 25 25 23 22 23 22 22 22 23 23 23 23 23 23 23 23 23 24 24 25 25 25 25 25 25 25 26 26 26 26 27 27 27 27 27 27 27 27 28 28 28 28 28 29 29 30 31 31 31 32 32 32 32 33 33 33 33 34
20 21 23 24 24 25 24 23 23 23 23 23 24 25 25 26 26 27 28 29 30 30 28 27 29 30 26 23 23 24 23 23 23 24 24 23 22 23 23 24 23 23 23 24 24 24 24 24 25 24 24 25 25 26 26 26 26 27 27 27 27 28 28 28 28 28 28 28 28 29 29 30 30 31 31 32 32 33 33 32 32 33 33 33 33 34
21 22 25 27 27 28 29 28 27 27 28 28 28 28 28 28 28 29 29 28 28 30 30 30 32 31 27 24 25 25 24 24 24 24 25 24 23 23 24 24 24 24 24 24 24 24 24 24 25 24 24 25 26 26 26 27 27 27 28 28 28 28 28 28 28 28 29 29 29 29 30 30 31 32 32 33 33 33 33 33 33 33 34 34 34 34
20 22 24 27 28 29 30 30 30 31 31 30 29 29 29 29 30 30 31 30 30 31 32 31 32 31 29 28 29 28 28 26 26 26 26 25 24 24 25 25 25 25 24 24 24 24 24 25 25 25 26 26 26 27 27 28 28 28 28 28 28 28 28 29 29 29 29 30 30 30 31 31 32 32 33 33 34 34 33 34 34 34 34 34 34 35
20 21 23 25 26 26 27 25 25 25 25 24 25 26 27 28 29 30 31 32 33 34 35 34 34 33 30 28 29 29 30 29 28 28 28 27 25 25 26 26 26 26 25 25 25 25 25 26 26 26 27 27 27 27 27 27 27 27 27 27 27 27 28 28 29 29 30 30 30 31 31 32 32 33 33 34 34 34 34 34 34 34 34 34 35 35
22 22 23 24 24 25 24 23 22 22 22 24 25 27 28 29 30 31 31 31 33 35 37 37 36 36 34 33 31 30 30 31 31 30 30 29 27 26 26 27 27 26 26 26 26 26 26 26 26 26 26 26 26 26 26 26 26 26 26 26 26 26 27 27 28 28 29 30 30 31 31 32 33 33 34 34 34 34 34 34 34 34 35 35 36 36
23 24 25 25 26 27 28 28 27 26 27 28 29 31 31 31 32 31 31 32 34 34 36 37 36 36 37 36 34 31 29 29 30 30 30 29 28 27 27 28 28 27 26 26 26 26 26 25 26 26 26 25 25 25 25 25 25 26 26 26 26 26 26 26 27 27 28 29 30 31 31 32 33 34 34 34 34 34 34 35 35 35 36 36 37 37
23 25 26 27 28 30 31 32 31 30 31 32 32 33 33 34 34 33 34 36 35 35 37 38 37 36 35 35 34 34 33 31 30 29 28 29 29 29 28 28 28 27 26 26 26 26 26 26 26 26 25 25 24 24 25 25 25 25 25 26 25 25 25 25 26 27 28 29 30 31 31 32 33 33 34 34 34 34 35 35 35 36 36 37 37 38
23 26 27 28 30 31 32 33 33 32 32 33 34 34 35 35 35 35 37 38 37 36 38 39 40 39 38 37 37 36 35 35 33 31 30 30 30 30 30 29 29 28 28 27 27 27 27 26 25 24 23 23 23 24 24 24 25 25 25 25 25 25 25 25 26 27 28 29 30 31 31 32 33 33 33 34 34 34 35 35 36 36 37 38 38 38
23 25 26 27 30 32 33 33 33 33 33 34 35 36 36 36 36 36 37 37 37 39 39 41 43 42 40 40 40 38 37 36 36 35 34 33 31 31 30 29 29 28 28 28 27 27 26 25 24 23 22 23 23 23 23 24 24 25 25 25 24 24 25 25 26 27 28 29 30 31 32 32 32 33 33 34 34 35 35 36 36 37 38 38 38 38
24 25 26 26 29 32 33 32 32 33 33 34 35 36 36 36 36 35 35 36 36 38 38 39 41 42 41 41 41 39 38 37 37 38 37 35 33 33 31 30 29 28 28 27 26 25 24 23 23 22 23 23 23 23 23 23 24 24 24 24 24 24 24 25 26 27 28 29 30 31 31 32 32 33 33 34 34 35 35 36 36 37 38 38 38 39
25 26 27 27 29 31 31 31 31 32 32 34 36 37 36 35 34 34 34 33 33 34 35 37 38 38 39 39 39 39 38 36 37 37 37 36 36 34 32 31 29 28 27 26 24 23 23 23 22 23 23 23 22 23 23 23 24 24 24 24 24 24 24 25 26 27 28 28 29 30 31 31 32 32 33 33 34 34 35 35 36 37 37 38 38 39
26 27 27 27 29 31 31 31 30 30 30 32 33 32 32 32 32 32 32 32 32 31 32 33 34 35 36 36 37 38 37 35 34 34 33 33 34 33 31 30 29 27 26 25 23 23 22 22 22 22 22 22 22 22 23 23 23 23 23 23 23 23 24 24 25 26 27 28 29 30 30 31 31 32 33 33 33 34 34 35 36 36 37 38 39 39
27 27 28 27 29 31 32 30 29 29 30 31 29 27 27 28 29 30 30 31 31 31 32 33 34 34 34 34 36 37 36 33 31 30 29 29 29 30 30 28 27 26 24 24 23 23 22 21 21 21 21 22 22 22 22 23 23 23 22 22 22 23 23 24 25 26 27 28 29 29 30 31 31 32 32 33 33 34 34 35 36 36 37 38 39 40
28 28 28 28 29 30 30 28 28 29 30 29 28 27 27 28 29 30 31 32 32 32 33 34 34 34 33 34 35 36 37 35 32 30 29 29 29 30 28 27 26 25 24 23 23 22 21 21 21 21 21 22 22 22 23 23 23 22 22 22 22 23 23 24 25 26 26 27 28 29 30 30 31 31 32 32 32 33 34 34 35 36 37 38 39 40
29 28 28 28 28 28 28 27 28 28 29 30 29 28 28 28 28 29 30 30 30 29 30 31 32 32 32 33 34 35 36 35 32 31 31 29 29 29 28 27 26 25 24 24 23 22 21 21 21 21 22 22 22 23 23 23 22 21 21 21 22 22 23 24 25 25 26 27 28 29 29 30 31 31 31 31 32 33 33 34 35 36 37 37 38 39
28 28 28 28 28 27 28 29 29 29 31 30 27 24 23 22 22 23 25 27 26 25 26 27 28 28 28 29 30 30 30 30 30 32 32 30 29 28 28 26 25 24 23 23 22 21 21 21 21 21 22 23 23 24 23 22 21 21 21 21 22 22 23 24 25 25 26 27 28 29 29 30 30 30 30 31 32 32 33 34 35 35 36 37 37 38
27 27 27 28 28 28 28 29 28 28 28 26 22 20 19 19 19 20 23 25 23 20 21 22 23 24 24 25 26 25 24 26 29 30 31 30 29 28 26 25 24 23 22 22 21 21 21 21 21 22 22 23 23 23 23 22 21 20 20 21 22 23 23 24 25 25 26 27 27 28 29 29 29 30 30 31 31 32 33 34 35 35 35 36 37 38
28 27 27 28 28 27 27 27 27 27 27 24 21 21 21 21 20 21 24 24 20 18 20 21 21 21 21 21 23 21 21 24 27 29 29 28 27 27 25 24 23 22 22 21 21 21 21 21 21 22 22 22 23 22 22 21 20 20 21 21 22 23 24 24 24 25 26 27 27 28 28 28 29 29 29 30 31 31 32 33 34 34 34 34 36 37
28 26 26 28 28 27 27 27 27 27 26 24 22 23 23 23 22 22 23 22 19 19 20 19 19 20 19 19 20 19 20 21 23 25 26 26 26 25 23 22 22 21 21 21 20 20 20 21 21 21 21 22 22 22 21 21 21 21 21 21 22 23 23 24 24 24 26 26 27 27 27 27 28 28 28 29 30 30 31 32 33 32 33 34 35 36
26 25 25 26 27 27 27 27 26 26 25 23 22 23 23 23 22 22 22 21 21 22 22 20 20 21 19 19 18 18 18 18 18 20 22 23 24 22 21 20 20 20 20 20 19 19 20 20 20 21 21 21 22 21 21 20 21 21 21 21 22 22 22 22 23 24 25 26 26 26 26 26 26 27 27 28 28 28 29 31 31 31 32 34 34 35
25 24 24 24 24 25 25 25 25 25 22 20 22 22 21 20 20 21 21 22 22 23 23 22 22 21 19 19 19 18 17 15 14 17 19 20 20 19 18 19 18 18 19 19 19 19 20 20 20 21 21 21 21 20 20 20 20 20 20 21 21 21 21 21 23 24 25 25 24 25 25 25 25 26 26 27 27 27 28 30 30 30 32 33 33 33
23 22 23 22 22 23 23 23 23 22 18 18 21 20 19 19 21 21 22 22 22 22 22 22 22 20 19 19 20 20 18 16 14 16 18 18 17 16 17 17 17 17 18 18 18 19 19 20 20 20 20 20 20 19 19 20 20 20 20 20 20 20 20 21 23 23 23 23 23 23 23 23 24 25 25 26 26 26 27 28 29 29 31 31 31 30
22 21 22 21 19 20 21 21 20 19 18 20 21 20 19 20 21 22 22 22 21 21 21 21 21 20 19 19 19 19 19 18 17 16 17 16 16 16 16 15 16 17 17 17 18 18 18 19 20 19 19 19 19 19 19 19 20 19 19 19 19 19 20 21 21 21 21 21 22 22 22 22 23 24 24 24 24 25 26 27 27 28 29 29 28 27
20 20 21 21 20 20 22 23 23 23 23 23 22 21 20 21 21 22 22 21 20 20 20 20 20 20 19 18 18 18 18 19 18 17 17 16 16 15 15 15 15 16 16 17 17 17 18 19 19 19 18 18 18 19 19 19 19 19 19 18 18 18 19 19 20 19 19 20 20 20 21 21 22 23 23 23 23 24 25 26 26 27 28 28 26 24
20 20 21 21 21 22 24 24 24 24 23 22 21 21 21 20 20 19 20 20 19 19 19 19 19 19 18 18 17 17 17 18 18 17 16 16 15 15 15 15 15 15 16 16 16 17 17 18 18 18 18 17 18 19 19 18 18 18 17 17 16 17 17 17 17 18 18 19 19 19 20 20 21 21 21 21 21 23 24 25 26 26 28 27 24 22
21 21 21 21 21 21 21 21 20 21 21 21 21 21 20 19 17 16 17 17 18 18 18 18 18 18 18 18 18 18 18 18 18 16 15 15 14 14 14 15 15 15 15 15 15 15 16 16 16 17 17 17 17 18 18 18 17 17 16 15 15 15 15 15 16 17 17 18 18 18 19 19 19 19 19 20 21 22 23 24 25 26 26 25 22 20
19 18 18 19 20 21 22 21 21 22 22 21 20 19 17 16 16 16 16 16 17 17 17 17 16 17 17 18 18 18 18 18 17 15 14 13 13 13 13 13 13 13 13 13 13 13 14 14 15 15 16 16 16 16 16 16 16 15 14 14 14 14 13 14 15 15 16 16 17 17 18 18 18 17 18 19 20 21 22 24 24 24 25 23 20 18
21 20 20 21 22 22 21 21 21 21 20 18 17 16 15 15 16 17 16 16 15 15 15 15 14 14 14 16 17 18 17 16 15 14 13 13 12 12 12 11 11 12 12 11 11 12 12 12 13 14 14 14 14 14 15 15 14 14 14 13 13 12 12 12 13 14 15 15 16 16 17 17 16 16 17 19 19 20 22 23 23 23 23 21 18 17
23 23 22 21 21 21 19 18 18 18 18 17 17 17 17 17 16 16 16 15 15 14 12 12 12 11 10 12 15 17 16 15 14 13 12 12 11 11 11 10 10 10 10 11 11 11 10 11 11 12 12 12 12 12 13 13 13 13 12 12 11 11 11 11 12 13 13 14 15 16 16 15 15 16 17 18 18 20 21 22 22 22 21 19 17 16
22 22 21 20 21 21 20 19 19 19 18 19 19 18 17 17 17 16 15 14 14 12 11 10 10 10 11 12 14 16 15 14 13 12 11 11 10 10 10 10 10 10 10 10 11 10 9 9 10 9 9 9 9 10 11 11 11 11 11 10 10 9 9 10 11 12 13 13 14 15 15 14 14 16 17 17 18 19 20 20 21 21 20 19 17 16
Wind_Direction
249 246 244 246 246 243 245 248 252 256 254 254 256 257 257 257 257 253 253 254 254 253 251 249 250 251 251 250 248 246 246 250 254 255 255 255 256 257 256 255 254 254 253 250 246 242 242 243 243 245 247 247 247 248 248 248 248 248 249 250 252 254 258 260 261 263 265 269 271 272 273 274 273 269 264 259 257 256 255 254 253 251 250 249 248 247
250 249 245 248 252 248 247 247 249 251 251 253 256 258 257 257 257 256 257 256 253 255 253 250 252 254 253 253 252 250 250 252 253 254 254 254 256 257 256 256 254 253 251 247 243 241 241 242 241 242 245 245 245 247 247 247 248 249 249 251 253 255 258 261 262 263 264 268 271 273 274 276 275 272 267 263 259 257 256 255 254 252 251 250 249 247
248 249 247 250 251 247 247 247 247 248 250 254 256 259 259 256 257 258 256 255 254 254 253 252 256 257 255 254 253 252 253 254 253 253 253 254 256 257 256 254 251 250 248 243 242 242 242 241 239 240 242 243 245 246 247 247 248 249 250 252 254 256 260 262 264 265 265 268 271 273 274 276 277 274 270 266 262 260 258 256 255 253 252 251 249 248
251 250 250 251 246 243 246 246 246 249 251 254 257 259 258 256 259 259 252 252 253 253 256 260 262 261 257 255 255 253 254 254 253 253 254 255 256 256 254 251 249 249 247 244 242 242 242 241 239 239 241 243 244 245 246 247 248 250 251 252 254 258 261 264 266 266 267 269 270 272 274 276 277 277 273 268 265 263 261 259 256 255 254 252 251 249
254 254 254 250 246 245 246 244 245 252 254 253 255 259 260 257 259 261 256 254 255 253 256 262 265 261 254 253 254 253 253 254 252 252 252 252 252 251 250 249 248 249 248 245 242 241 241 241 239 238 240 242 243 245 247 248 249 250 251 253 256 260 263 265 267 268 269 270 271 273 274 275 277 278 276 272 269 267 265 262 259 258 256 254 252 251
255 257 254 248 247 247 246 247 248 253 258 256 253 256 259 257 255 256 255 255 256 250 248 260 266 257 247 251 252 251 253 252 249 249 249 249 249 247 246 247 246 247 247 245 242 241 240 239 238 238 239 241 243 245 248 249 249 251 252 254 257 260 263 266 268 270 271 271 273 275 275 276 278 279 277 275 272 269 267 266 263 261 258 255 254 252
254 254 254 250 249 248 249 253 250 250 260 260 253 252 254 253 252 251 252 253 258 256 251 258 263 259 258 256 251 250 253 251 248 248 249 248 247 246 246 245 245 244 244 243 243 241 239 238 238 238 239 241 244 246 248 250 251 251 253 255 258 261 263 266 268 270 272 273 274 276 276 277 278 279 278 276 274 271 268 267 266 264 262 259 256 254
249 247 250 251 250 248 250 254 249 247 256 258 254 253 249 247 249 250 253 255 261 267 261 254 257 263 267 261 252 252 254 252 249 249 249 248 246 245 245 244 242 241 241 241 242 241 240 239 239 239 241 242 245 246 248 251 252 253 254 256 258 261 263 265 267 269 271 273 275 277 277 277 278 279 279 277 275 273 270 267 267 265 264 262 259 257
249 245 245 246 247 248 251 255 248 244 252 256 255 255 249 249 253 253 257 260 262 270 266 250 250 263 265 258 253 252 252 253 252 250 249 247 245 244 244 243 242 241 241 241 241 241 240 240 241 242 243 244 245 247 249 252 254 255 256 258 259 261 263 265 267 269 271 273 276 277 278 278 278 279 280 279 277 275 273 270 267 265 264 263 261 260
254 252 250 245 247 250 250 255 250 246 253 254 252 254 252 253 256 255 260 264 263 267 267 252 248 263 267 259 254 252 253 256 255 252 250 246 245 246 245 244 243 242 242 242 241 241 241 241 243 244 245 246 247 249 251 253 255 256 258 259 260 261 264 265 267 269 271 273 276 277 278 279 279 279 279 279 278 277 275 273 270 267 264 263 262 261
252 254 256 250 251 254 252 252 253 251 251 249 248 252 253 254 257 259 261 265 265 265 262 251 249 262 268 264 258 256 259 262 258 251 248 246 246 247 247 246 245 244 243 242 241 242 242 243 244 246 247 248 250 251 253 255 257 258 259 260 261 263 265 266 267 269 271 273 275 276 278 278 278 278 278 278 278 277 276 274 272 269 266 264 263 262
249 251 254 251 251 253 251 251 254 252 246 247 251 253 255 255 256 259 259 258 264 264 256 250 253 259 262 264 264 261 261 263 260 252 248 249 250 249 249 248 247 246 245 243 243 243 243 244 246 247 249 250 251 253 255 257 259 260 261 262 262 263 265 266 268 269 271 273 275 276 277 278 277 277 277 277 277 276 275 274 273 271 269 267 264 263
256 254 253 252 251 249 251 252 253 252 248 250 254 253 255 257 256 260 259 257 262 263 253 250 255 259 261 264 267 266 262 260 258 255 254 255 256 254 251 249 248 247 245 244 244 244 244 245 247 248 249 250 252 254 256 258 260 261 263 263 263 264 265 266 268 269 270 272 274 275 277 277 277 276 276 277 276 276 275 274 273 272 270 269 267 264
264 256 250 253 255 250 250 254 253 253 250 248 251 252 253 259 262 263 262 262 265 263 255 253 256 262 267 266 264 263 262 258 255 255 257 258 258 258 255 251 249 247 246 246 245 245 245 245 247 248 250 251 253 255 257 258 260 262 264 264 264 264 265 266 267 268 270 271 273 274 276 276 276 276 276 276 276 276 275 274 273 272 270 269 268 267
267 264 252 252 258 249 247 254 257 260 257 250 253 255 255 259 265 266 266 268 268 264 256 253 256 263 267 267 262 262 263 260 258 257 257 259 259 259 258 255 252 249 247 247 246 245 246 246 247 249 251 252 254 256 257 259 261 263 265 266 265 264 265 265 266 268 269 271 272 273 274 274 274 275 276 276 276 276 276 275 274 273 271 269 268 267
265 266 256 254 261 255 252 256 258 263 263 257 255 256 256 259 264 267 270 271 273 270 260 256 260 264 266 268 265 264 265 261 259 257 256 259 260 260 259 256 252 250 248 247 246 246 247 248 249 251 253 254 256 258 259 261 263 265 267 267 266 264 265 265 266 267 269 270 272 273 274 274 273 274 275 276 276 276 276 276 275 274 272 271 269 268
264 263 258 259 261 258 259 262 259 260 264 262 257 258 260 262 263 266 268 268 268 268 264 259 261 264 267 268 263 259 261 260 257 257 256 258 260 260 259 256 252 249 248 246 246 246 247 249 251 253 254 256 258 260 261 263 265 267 268 269 268 265 265 266 265 267 269 270 272 273 273 273 273 274 275 276 276 277 277 277 276 275 274 272 271 269
268 267 265 265 264 260 261 265 262 259 262 263 262 263 264 263 262 263 266 267 264 265 266 259 257 261 265 266 261 255 256 258 256 256 255 257 259 259 258 256 252 249 248 246 245 247 248 250 252 253 256 258 260 262 263 265 267 268 269 270 269 267 266 266 266 267 269 271 272 273 273 273 273 274 275 275 276 277 277 277 277 276 275 274 273 271
271 271 269 268 266 264 263 264 265 261 259 262 265 266 264 263 262 260 261 265 264 266 267 260 257 261 262 262 262 259 257 259 257 255 255 256 257 258 257 254 251 249 248 248 248 249 250 252 253 254 257 259 261 264 265 266 268 269 270 270 270 267 266 265 266 268 269 271 272 273 273 273 274 274 275 276 277 277 278 278 278 277 276 275 274 272
272 273 271 267 265 267 266 264 265 265 261 261 264 264 263 264 264 262 260 262 264 266 268 266 263 264 262 261 263 264 262 260 257 255 255 256 256 257 256 254 251 250 250 250 251 252 252 253 254 255 258 260 262 265 266 267 268 269 270 270 270 268 266 265 266 267 269 270 272 273 274 274 275 275 276 277 277 278 278 278 278 277 276 275 274 272
272 271 270 268 266 267 267 265 266 268 265 263 263 263 263 264 265 265 262 260 263 266 267 268 267 266 267 266 263 263 263 260 257 257 257 257 257 256 255 254 253 252 252 252 254 254 255 255 255 257 260 262 264 266 266 267 268 269 270 270 269 268 266 265 266 267 269 270 271 273 274 275 276 276 277 277 277 278 278 278 277 277 276 274 273 272
274 271 271 271 269 267 268 269 269 269 268 267 266 265 265 265 265 266 265 262 261 262 264 267 268 267 268 268 263 263 265 262 258 256 255 257 257 256 255 253 253 254 255 255 255 256 256 256 257 259 261 263 265 266 266 267 268 269 270 270 270 269 267 266 266 267 269 271 272 274 275 276 276 277 277 277 278 278 278 277 276 276 275 274 273 271
276 273 272 272 271 270 271 271 270 269 269 269 268 266 266 266 264 264 266 266 263 262 264 266 267 265 265 264 264 265 265 263 258 254 255 258 259 257 254 253 254 254 256 256 256 256 258 259 260 261 262 265 266 267 267 268 269 269 270 271 271 269 268 267 267 268 270 271 273 274 276 277 277 278 278 278 279 279 278 277 276 276 275 274 273 271
277 273 273 273 274 274 273 272 270 267 267 269 268 267 266 266 266 264 265 267 266 264 264 265 264 264 265 265 265 265 263 261 258 254 254 258 260 257 255 254 254 253 255 257 257 258 260 261 262 263 264 266 267 268 268 268 269 270 271 271 271 269 268 267 267 269 270 272 273 274 276 277 278 278 279 279 279 279 278 278 277 276 275 274 273 272
277 274 275 277 278 278 276 275 272 267 266 269 270 269 269 269 271 270 268 268 266 264 263 262 262 264 266 266 264 263 261 258 256 254 255 256 257 257 256 254 253 253 255 256 257 258 261 262 263 264 265 267 269 269 269 269 269 270 270 270 270 269 268 267 267 269 270 272 273 275 276 277 278 279 279 279 279 279 279 278 278 276 275 274 273 272
278 276 275 275 276 278 278 277 277 274 271 272 273 272 272 272 272 273 271 268 267 267 264 262 264 266 266 264 263 262 260 258 256 255 255 254 253 255 255 253 253 254 255 255 256 258 261 262 262 264 266 268 269 269 268 268 268 269 269 269 269 268 267 267 267 269 271 273 274 276 277 278 278 279 280 280 279 279 279 278 277 276 275 274 273 272
277 275 273 272 272 274 277 279 280 279 275 275 275 274 273 272 271 271 270 267 267 269 266 265 267 269 267 264 263 261 259 259 258 255 253 252 252 254 254 253 253 254 254 255 257 259 261 263 263 264 266 267 267 267 267 267 267 268 268 268 268 268 268 268 269 270 272 274 276 277 278 279 279 280 280 280 280 280 279 278 277 276 275 275 274 273
276 275 273 272 272 273 276 278 280 279 276 276 276 275 274 273 271 269 267 267 268 268 266 265 266 268 267 266 264 261 259 260 259 256 253 253 253 253 253 253 251 251 252 255 258 260 262 262 263 264 265 264 265 265 265 267 267 268 268 267 267 267 268 269 270 272 274 276 277 279 280 280 281 281 281 281 281 280 279 278 276 276 276 276 275 274
277 276 275 275 274 275 276 278 278 278 277 276 276 276 275 273 271 268 267 268 267 265 266 265 264 263 264 265 263 262 261 259 258 258 257 257 257 254 252 251 249 249 252 256 259 261 261 261 261 262 262 262 263 263 264 266 268 268 268 267 267 267 267 269 271 274 276 278 279 280 281 282 282 282 281 281 281 281 280 278 277 277 277 277 276 275
279 278 278 278 277 277 277 277 278 277 277 276 275 275 275 273 271 270 270 269 267 266 266 266 264 261 260 261 261 261 261 259 258 259 258 257 257 255 251 249 248 250 253 256 258 259 259 259 258 258 260 261 262 263 264 266 267 267 267 266 266 267 268 271 273 276 278 280 281 282 283 283 282 282 282 281 281 281 280 279 278 278 278 278 277 275
280 279 280 281 280 279 278 278 277 276 276 277 276 276 275 273 273 272 271 270 268 267 266 265 264 262 259 257 259 260 260 259 258 257 255 254 254 252 249 248 248 250 253 255 255 256 258 258 256 257 260 261 262 263 264 266 267 267 266 266 266 268 270 273 276 278 280 281 283 283 284 283 283 282 282 282 282 281 281 280 280 279 279 278 277 276
280 280 281 281 279 279 279 278 277 277 278 277 276 275 274 273 272 272 271 270 268 268 268 265 264 263 261 257 257 258 258 257 256 255 253 252 252 249 247 247 247 249 251 251 251 254 257 256 255 256 260 262 263 264 265 267 268 267 266 266 267 270 272 275 277 280 282 283 284 285 285 284 284 283 283 283 283 283 282 282 281 281 280 279 278 277
279 280 281 280 279 279 280 280 280 280 278 276 276 276 274 271 271 271 271 271 269 269 269 266 265 266 263 259 257 255 254 253 254 253 251 249 247 245 244 245 245 246 248 248 250 253 255 254 254 257 260 262 265 266 267 267 267 266 266 267 269 271 274 277 279 281 284 285 286 286 286 285 285 285 285 285 284 284 284 284 284 283 282 281 280 278
278 278 279 278 278 279 280 281 279 276 273 275 279 279 276 274 273 273 273 272 271 269 268 267 268 268 265 261 257 253 251 252 252 250 249 247 245 245 243 241 241 243 245 246 250 252 253 254 256 258 261 264 266 267 268 268 268 267 267 268 270 273 275 278 281 283 285 286 287 287 287 287 287 286 286 286 286 286 287 287 286 286 284 283 282 280
277 277 278 277 277 278 280 278 274 271 272 277 280 278 277 277 276 275 275 274 273 272 270 268 267 267 265 262 258 254 251 250 249 248 249 248 246 243 241 238 239 241 243 246 249 250 252 255 257 260 263 265 265 266 267 268 268 267 267 269 271 274 277 279 282 284 286 288 288 288 288 288 288 288 287 287 288 289 289 289 289 288 286 285 283 282
276 276 277 276 276 276 276 273 270 273 278 281 279 279 279 277 275 275 276 275 274 274 273 271 269 268 266 263 260 255 250 247 247 248 248 247 244 241 238 238 238 239 242 246 248 249 253 256 258 261 264 265 265 266 267 267 267 267 268 269 272 274 278 281 284 285 287 289 289 289 289 290 289 289 289 289 290 291 291 292 292 290 289 287 285 283
274 275 275 275 274 274 274 272 273 276 279 280 279 279 279 277 276 277 278 277 277 278 276 275 273 271 268 265 263 258 249 244 245 246 244 241 240 239 237 236 237 239 242 245 247 250 254 257 259 263 265 266 266 267 267 265 265 267 268 270 272 275 278 282 284 286 288 289 289 290 291 291 291 290 290 291 292 292 293 294 293 292 290 288 286 285
274 272 273 274 273 273 273 274 275 274 276 277 275 273 275 277 277 279 280 280 281 280 279 278 276 274 270 268 266 259 248 243 244 243 240 236 234 234 234 234 236 239 241 243 247 250 254 257 261 264 266 267 267 267 265 263 264 267 269 271 274 276 279 282 284 287 289 290 291 292 293 292 292 291 292 293 293 294 295 296 295 294 292 289 288 287
275 273 272 272 272 272 271 272 272 272 274 276 273 271 275 277 277 278 279 280 280 282 282 279 278 277 272 268 266 258 246 244 244 240 235 230 228 229 230 232 235 236 239 243 247 250 254 258 261 264 266 267 267 266 263 261 263 267 269 272 275 277 280 282 285 288 290 291 292 293 294 293 293 293 293 294 295 296 297 298 297 296 294 292 291 290
276 275 272 270 269 269 268 269 270 271 273 274 274 276 278 278 277 274 273 275 281 286 284 279 279 280 275 269 264 253 246 249 246 237 230 226 224 226 228 230 233 234 238 244 246 249 255 258 261 264 266 268 267 264 261 261 263 267 270 274 276 278 281 283 286 290 291 292 292 293 294 294 294 293 294 295 297 298 299 300 299 298 297 297 295 293
278 276 273 270 269 269 268 269 270 271 272 272 275 279 280 277 272 266 267 275 283 285 282 278 278 280 277 270 261 251 252 256 244 226 220 217 217 221 225 229 232 235 240 244 247 251 256 259 262 265 267 268 267 263 260 261 264 267 271 274 276 279 282 285 288 291 291 292 293 294 295 295 295 295 296 297 298 299 300 302 302 302 302 301 299 297
280 277 274 271 270 270 269 268 270 271 271 272 277 280 278 273 268 266 271 278 282 283 283 279 276 277 275 267 257 251 255 256 234 212 208 209 212 218 224 227 231 236 240 245 249 253 257 260 263 264 266 268 266 260 259 261 263 267 271 273 276 279 282 287 290 291 291 292 294 295 295 296 296 297 298 299 300 301 302 304 305 306 306 304 303 301
278 277 275 271 270 270 267 266 268 270 270 274 280 280 273 269 271 274 276 277 278 282 283 278 274 273 271 264 256 249 248 246 231 214 210 212 217 221 225 228 233 237 242 246 251 255 258 261 262 263 267 268 264 257 257 260 263 266 270 273 276 280 283 288 291 291 292 294 295 296 296 297 299 300 300 301 303 303 305 307 307 308 309 309 307 305
274 271 272 272 270 268 266 264 266 270 275 279 280 277 273 273 275 276 276 276 277 280 281 277 271 268 266 261 254 246 242 239 231 220 216 219 222 224 228 232 236 241 246 250 253 256 259 261 263 265 267 267 262 256 257 260 262 264 268 272 276 280 284 289 292 292 293 296 297 298 299 300 301 302 302 304 305 306 308 310 310 311 313 313 311 307
271 269 272 273 269 267 268 268 271 274 276 278 275 273 273 276 277 275 274 274 275 277 279 277 270 265 262 258 250 243 239 235 228 220 218 222 224 227 232 236 240 245 249 251 255 258 261 263 265 265 265 265 261 256 256 259 260 262 267 273 277 281 286 289 292 294 296 299 300 300 302 303 304 304 305 306 307 309 311 312 313 315 317 317 313 308
269 269 271 272 272 271 270 270 271 271 272 272 272 272 274 276 278 277 273 271 273 277 279 276 270 264 260 253 246 241 237 231 224 218 219 224 227 230 235 239 242 246 249 253 257 261 263 265 266 264 262 262 260 256 254 256 259 262 267 273 277 283 287 291 294 297 300 302 303 304 305 306 307 308 308 308 310 312 314 315 315 317 320 320 315 309
271 270 269 270 272 272 269 268 269 270 270 272 273 272 272 273 275 277 275 273 276 278 278 276 270 262 256 250 242 236 233 228 222 219 221 225 228 231 235 239 242 246 250 255 259 263 265 266 264 261 259 259 257 254 252 253 257 261 266 272 278 283 288 293 298 301 304 306 307 308 308 309 310 310 311 312 313 315 317 319 318 319 322 322 318 311
273 272 269 269 270 270 269 269 272 272 272 273 272 270 269 270 272 277 279 279 281 280 277 276 270 261 256 250 237 226 224 224 220 219 221 224 227 231 235 239 243 247 251 255 261 266 267 265 263 260 256 255 254 251 248 249 253 258 264 270 277 283 289 297 303 306 308 310 311 312 312 312 312 312 314 316 316 317 320 323 323 323 324 324 321 316
269 268 269 270 271 271 270 270 271 271 269 269 269 267 268 271 274 278 279 280 284 283 279 277 271 261 255 247 228 212 211 214 214 218 223 225 226 229 232 238 243 246 249 254 260 265 265 265 265 261 258 257 253 247 244 245 249 255 261 268 277 283 289 298 305 309 312 314 315 315 315 314 314 315 316 319 320 320 323 327 328 328 327 326 323 321
265 264 266 268 269 270 269 268 270 270 268 267 268 269 270 272 274 276 277 279 284 286 280 276 269 253 240 229 214 207 208 210 212 220 226 224 224 227 232 239 246 248 251 254 256 260 264 267 266 261 258 256 250 242 241 242 246 252 258 266 276 283 288 298 306 311 316 319 319 319 318 316 317 319 320 321 323 324 326 330 333 333 333 330 326 325
262 262 263 265 267 269 269 268 269 268 267 269 271 270 271 272 272 272 273 276 282 281 274 272 266 244 224 214 211 211 212 210 213 221 223 219 222 229 236 244 250 250 252 252 252 258 266 267 263 257 252 249 243 238 237 239 243 249 256 264 273 279 286 298 308 315 319 321 322 322 320 317 319 322 323 324 326 328 330 333 336 338 339 336 332 329